カタログに戻る

CZ-6A DEB

運用中PO
NORAD 60845·DEBRIS·🇨🇳 China

打ち上げ Aug 6, 2024 から Taiyuan Satellite Launch Center

Loading…

次のパス (今後24時間)

TLE

最新Source: Space-Track

元期: Sep 14, 2026, 07:13 UTC

1 60845U 24140HY  26257.30088358  .00000379  00000-0  74373-4 0  9998
2 60845  89.0312 262.7605 0121315 302.7914  56.1655 14.56159929110927

AllMySatでCZ-6A DEBをリアルタイム追跡

Download on the App Store